STARLINK-33784, 63453

Orbit data source: Space-Track

STARLINK-33784, 63453 is a payload satellite owned by SpaceX/Seattle (US) in LEO that was launched on Fri, 04 Apr 2025 UTC via an FALCON 9 launch vehicle from the Air Force Western Test Range (AFWTR). Payload-class satellites include a variety of spacecraft equipped with specific instruments for various scientific and technological missions. These include communications satellites like Starlink; space stations such as the ISS; scientific satellites like the Hubble; Earth observation satellites from companies like Planet Labs, Umbra, and HawkEye 360; GPS; miniature CubeSats for education and research; and military/defense satellites.

Loading next visibility...
Identifier
63453, 2025-069W
Orbit
LEO
Country
Flag of USUS
Related business
Manufacturer
SpaceX/Seattle
Mission
Operational Commercial Communications
Bus & Motor
STARLINK V2MO, Unknown motor
Mass
575 kg wet, ~530 kg dry
Launch date (UTC)
2025-04-04 (1 year ago)
Launch vehicle
FALCON 9
Launch site
Air Force Western Test Range (AFWTR)
Object type
Payload
Rocket body
Debris
Shape & HBR
Box + 2 Pan, 17.7 m
Radar Cross Section
36.964 m², Large (>1 m²)

Expand to show TLE details & history
Last TLE update: 9 hours ago

TLE from 9 hours ago
0 STARLINK-33784
1 63453U 25069W   26145.38636186  .00006370  00000-0  22695-3 0  9995
2 63453  53.1593 146.4846 0001288  94.9560 265.1588 15.30209422 65143
Epoch: 2026-05-25T09:16Z
TLE epoch observation values (Epoch: 2026-05-25T09:16:21.664Z)
Latitude
-0.00002°
Longitude
124.41942°
Altitude
476.161 km
Speed
7.629 km/s
True Right ascension
09h 45m 56s
True Declination
0° 00' 00"
Sunlit
Object was in daylight at epoch
Visualization orbit readout
Latitude
Unknown
Longitude
Unknown
Altitude
Unknown
Speed
Unknown
Apparent Right ascension
Unknown
Apparent Declination
Unknown
Sunlit
N/A
Visualization observer readout
Local Sidereal Time
03:05:14
Azimuth
Unknown
Elevation
Unknown
Doppler factor
Unknown
Orbital elements
Apogee altitude
476.326 km
Perigee altitude
474.561 km
Semi-major axis
6,853.58 km
Eccentricity
0.00013
Inclination
53.1593°
RAAN
146.4846°
Arg. of periapsis
94.956°
True anomaly
265.14409°
Mean anomaly
265.1588°
Eccentric anomaly
265.15145°
Mean motion
3.82531 °/min
Orbital period
94.11 mins
BSTAR
0.00022695
Loading maneuver chart data...
Computing Atmospheric mass density...
Loading historical data...
Loading historical data...
Loading historical data...
Loading historical data...
Loading historical data...
Loading historical data...
Loading historical data...

Documentation

Showing up to 5 results
|